CZ-4B R/B (29507 NORAD) Tracking and Keplerian Element Data

This shows tracking and keplerian element data for the satellite.

Feedback or suggestion? Click here.




ElementValue
Catalog29507
NameCZ-4B R/B
Epoch Orbit81516
Epoch Day268.81692496
Epoch Year2021
RAAN294.573
Inclination97.7657
Eccentricity0.0049533
Argument of Perigee38.4702
Mean Anonmoly322.0036
Mean Motion15.01140914
Decay Rate9.4E-06
L11 29507U 06046C 21268.81692496 .00000940 00000-0 76418-4 0 9996
L22 29507 97.7657 294.5730 0049533 38.4702 322.0036 15.01140914815167

Live tracking and technical data element details for CZ-4B R/B (NORAD 29507). CZ-4B R/B can be tracked NOW for your location showing map with azimuth and elevation plus other details from your city location.

Track the satellite on the map from your city or location and see movement details for azimuth, elevation, latitude, longitude, range, height, and movement on the map or in text.







IsCatalogInMostPopularTable: catalog: 29507, numindb: 850
Update: records affected: 1



GetName: 29507 CZ-4B R/B

Hit Count: updated at: Mon, 27 Sep 2021 00:39:32 GMT